Location: Berlin
(52.5171°N, 13.3759°E)
Time: 08:42:11
(UTC+02:00)

ISS - Visible Passes

Search period start: 24 September 2017 00:00
Search period end: 04 October 2017 00:00
Orbit: 401 x 407 km, 51.6° (Epoch: 24 September)

Date Brightness Start Highest point End Pass type
(mag) Time Alt. Az. Time Alt. Az. Time Alt. Az.
26 Sep -1.8 20:28:36 10° S 20:29:53 16° SSE 20:29:53 16° SSE visible
27 Sep -1.6 19:37:38 10° SSE 19:38:48 11° SE 19:39:58 10° ESE visible
27 Sep -1.7 21:11:31 10° SW 21:12:44 20° SW 21:12:44 20° SW visible
28 Sep -2.8 20:19:30 10° SSW 20:22:23 29° SSE 20:22:45 28° SE visible
28 Sep -0.6 21:55:19 10° WSW 21:55:24 11° WSW 21:55:24 11° WSW visible
29 Sep -2.2 19:27:43 10° SSW 19:30:12 20° SE 19:32:37 10° E visible
29 Sep -2.8 21:03:00 10° WSW 21:05:17 38° SW 21:05:17 38° SW visible
30 Sep -3.4 20:10:47 10° SW 20:13:57 45° SSE 20:15:03 31° ESE visible
30 Sep -1.0 21:46:59 10° W 21:47:42 16° W 21:47:42 16° W visible
01 Oct -2.8 19:18:41 10° SW 19:21:39 32° SSE 19:24:38 10° E visible
01 Oct -3.4 20:54:37 10° WSW 20:57:23 58° SW 20:57:23 58° SW visible
02 Oct -3.8 20:02:16 10° WSW 20:05:31 63° SSE 20:07:01 28° E visible
02 Oct -1.2 21:38:37 10° W 21:39:39 19° W 21:39:39 19° W visible
03 Oct -3.4 19:09:58 10° WSW 19:13:08 49° SSE 19:16:20 10° E visible
03 Oct -3.7 20:46:13 10° W 20:49:14 70° SW 20:49:14 70° SW visible
